Showing default

YAOGAN-31 A, 43275

Orbit data source: Space-Track

YAOGAN-31 A, 43275 is a payload satellite owned by PLA SSF (CN) in LEO that was launched on Tue, 10 Apr 2018 UTC via a CHANG ZHENG 4C launch vehicle from the Jiuquan Satellite Launch Center, China (JSC). Payload-class satellites include a variety of spacecraft equipped with specific instruments for various scientific and technological missions. These include communications satellites like Starlink; space stations such as the ISS; scientific satellites like the Hubble; Earth observation satellites from companies like Planet Labs, Umbra, and HawkEye 360; GPS; miniature CubeSats for education and research; and military/defense satellites.

Loading next visibility...
Identifier
43275, 2018-034A
Orbit
LEO
Last TLE update
6 hours ago
Origin
Manufacturer
DFH
Mission
Operational Defense Sigint
Bus & Motor
JB-8B, Unknown motor
Mass
~500 kg wet, ~500 kg dry
Launch date (UTC)
2018-04-10 (7 years ago)
Launch vehicle
CHANG ZHENG 4C
Launch site
Jiuquan Satellite Launch Center, China (JSC)
Object type
Payload
Rocket body
Debris
Shape & HBR
Box + 2 Pan, 1 m
Radar Cross Section
0.446 m², Large (>1 m²)

Expand to show TLE details & history

TLE from 6 hours ago
0 YAOGAN-31 A
1 43275U 18034A   25128.95575772 -.00000021  00000-0  98097-4 0  9993
2 43275  63.3985  51.1133 0239616   6.1915 354.1981 13.45407765347715
Epoch: 2025-05-08T22:56Z
Definitive object data (Epoch: 2025-05-08T22:56:17.467Z)
Latitude
-0°
Longitude
-159.9783°
Altitude
912.985 km
Speed
7.484 km/s
True Right ascension
03h 24m 27s
True Declination
0° 00' 00"
Sunlit
Object was in daylight at TLE epoch
Visualization TLE readout
Latitude
-11.00906°
Longitude
24.90952°
Altitude
1,270.981 km
Speed
7.134 km/s
Apparent Right ascension
18h 19m 24s
Apparent Declination
-50° 48' 31"
Sunlit
Object is in full shadow
Visualization observer readout
Local Sidereal Time
13:23:07
Azimuth
139.27° SSE
Elevation
-21.365°
Doppler factor
1
Orbital elements
Apogee altitude
1,266.932 km
Perigee altitude
909.13 km
Semi-major axis
7,466.168 km
Eccentricity
0.0239616
Inclination
63.3985°
RAAN
51.1133°
Arg. of periapsis
6.1915°
True anomaly
353.91202°
Mean anomaly
354.1981°
Eccentric anomaly
354.05593°
Mean motion
3.36431 °/min
BSTAR
0.000098097
Orbital period
107.01 mins
Loading maneuver chart data...
Loading SW <> Apogee altitude chart data...
Loading historical data...
Loading historical data...
Loading historical data...
Loading historical data...
Loading historical data...
Loading historical data...
Loading historical data...

YAOGAN-31 A Visibility forecast

Observer location: undefined°, undefined°

Span
Click to sort rows by Start time (UTC) header in descending order
Start Az.
Max El. time (UTC)
Max El. Az.
Max El.
End time (UTC)
End Az.
12 mins2025-05-09 06:39:29.146Z306.61° NW2025-05-09 06:45:29.146Z248.185° W28.993°2025-05-09 06:51:29.146Z190.246° SSW
11 mins2025-05-09 20:28:29.146Z205.798° SW2025-05-09 20:33:29.146Z107.745° ESE44.394°2025-05-09 20:39:29.146Z36.531° NE
8 mins2025-05-09 22:21:29.146Z284.879° WNW2025-05-09 22:24:29.146Z321.151° NNW21.439°2025-05-09 22:29:29.146Z13.28° NNE
11 mins2025-05-10 04:00:29.146Z348.526° N2025-05-10 04:05:29.146Z50.772° ENE30.581°2025-05-10 04:11:29.146Z107.647° ESE
|